Time,TemperatureF,DewpointF,PressureIn,WindDirection,WindDirectionDegrees,WindSpeedMPH,WindSpeedGustMPH,Humidity,HourlyPrecipIn,Conditions,Clouds,dailyrainin,SoftwareType,DateUTC
2013-08-17 00:01:00,64.9,59.6,30.33,SE,135,2.0,4.0,83,0.00,,,0.00,Weather View 32 v70,2013-08-17 05:01:00,
2013-08-17 00:06:00,64.8,59.8,30.33,SE,135,2.0,4.0,84,0.00,,,0.00,Weather View 32 v70,2013-08-17 05:06:00,
2013-08-17 00:11:00,64.8,59.8,30.33,ESE,112,2.0,4.0,84,0.00,,,0.00,Weather View 32 v70,2013-08-17 05:11:00,
2013-08-17 00:16:00,64.7,59.7,30.33,ESE,112,2.0,4.0,84,0.00,,,0.00,Weather View 32 v70,2013-08-17 05:16:00,
2013-08-17 00:21:00,64.7,59.7,30.33,ESE,112,3.0,5.0,84,0.00,,,0.00,Weather View 32 v70,2013-08-17 05:21:00,
2013-08-17 00:26:00,64.8,59.8,30.33,ESE,112,2.0,5.0,84,0.00,,,0.00,Weather View 32 v70,2013-08-17 05:26:00,
2013-08-17 00:31:00,64.9,59.9,30.33,ESE,112,2.0,5.0,84,0.00,,,0.00,Weather View 32 v70,2013-08-17 05:31:00,
2013-08-17 00:36:00,64.9,59.9,30.33,SE,135,3.0,5.0,84,0.00,,,0.00,Weather View 32 v70,2013-08-17 05:36:00,
2013-08-17 00:41:00,64.8,59.8,30.33,ESE,112,4.0,5.0,84,0.00,,,0.00,Weather View 32 v70,2013-08-17 05:41:00,
2013-08-17 00:46:00,64.8,59.5,30.33,SE,135,4.0,5.0,83,0.00,,,0.00,Weather View 32 v70,2013-08-17 05:46:00,
2013-08-17 00:51:00,64.7,59.4,30.33,SE,135,1.0,5.0,83,0.00,,,0.00,Weather View 32 v70,2013-08-17 05:51:00,
2013-08-17 00:56:00,64.6,59.6,30.33,SE,135,2.0,5.0,84,0.00,,,0.00,Weather View 32 v70,2013-08-17 05:56:00,
2013-08-17 01:01:00,64.4,59.4,30.33,SE,135,2.0,5.0,84,0.00,,,0.00,Weather View 32 v70,2013-08-17 06:01:00,
2013-08-17 01:06:00,64.2,59.6,30.33,SE,135,2.0,5.0,85,0.00,,,0.00,Weather View 32 v70,2013-08-17 06:06:00,
2013-08-17 01:11:00,64.0,59.4,30.33,ESE,112,1.0,5.0,85,0.00,,,0.00,Weather View 32 v70,2013-08-17 06:11:00,
2013-08-17 01:16:00,63.9,59.3,30.33,ESE,112,2.0,5.0,85,0.00,,,0.00,Weather View 32 v70,2013-08-17 06:16:00,
2013-08-17 01:21:00,63.9,59.3,30.33,East,90,3.0,5.0,85,0.00,,,0.00,Weather View 32 v70,2013-08-17 06:21:00,
2013-08-17 01:26:00,63.9,59.3,30.33,ESE,112,3.0,5.0,85,0.00,,,0.00,Weather View 32 v70,2013-08-17 06:26:00,
2013-08-17 01:31:00,63.9,59.3,30.33,ESE,112,2.0,5.0,85,0.00,,,0.00,Weather View 32 v70,2013-08-17 06:31:00,
2013-08-17 01:36:00,64.0,59.4,30.33,SE,135,2.0,5.0,85,0.00,,,0.00,Weather View 32 v70,2013-08-17 06:36:00,
2013-08-17 01:41:00,64.0,59.4,30.33,ESE,112,2.0,5.0,85,0.00,,,0.00,Weather View 32 v70,2013-08-17 06:41:00,
2013-08-17 01:46:00,63.9,59.3,30.33,ESE,112,3.0,5.0,85,0.00,,,0.00,Weather View 32 v70,2013-08-17 06:46:00,
2013-08-17 01:51:00,63.9,59.3,30.33,ESE,112,2.0,5.0,85,0.00,,,0.00,Weather View 32 v70,2013-08-17 06:51:00,
2013-08-17 01:56:00,63.7,59.4,30.33,ESE,112,2.0,5.0,86,0.00,,,0.00,Weather View 32 v70,2013-08-17 06:56:00,
2013-08-17 02:01:00,63.6,59.3,30.32,SE,135,1.0,5.0,86,0.00,,,0.00,Weather View 32 v70,2013-08-17 07:01:00,
2013-08-17 02:06:00,63.5,59.5,30.32,SE,135,2.0,5.0,87,0.00,,,0.00,Weather View 32 v70,2013-08-17 07:06:00,
2013-08-17 02:11:00,63.2,59.6,30.32,SE,135,2.0,5.0,88,0.00,,,0.00,Weather View 32 v70,2013-08-17 07:11:00,
2013-08-17 02:16:00,62.9,59.3,30.32,ESE,112,2.0,5.0,88,0.00,,,0.00,Weather View 32 v70,2013-08-17 07:16:00,
2013-08-17 02:21:00,62.9,59.6,30.32,SE,135,2.0,5.0,89,0.00,,,0.00,Weather View 32 v70,2013-08-17 07:21:00,
2013-08-17 02:26:00,62.9,59.6,30.32,ESE,112,3.0,5.0,89,0.00,,,0.00,Weather View 32 v70,2013-08-17 07:26:00,
2013-08-17 02:31:00,62.9,59.6,30.32,ESE,112,1.0,5.0,89,0.00,,,0.00,Weather View 32 v70,2013-08-17 07:31:00,
2013-08-17 02:36:00,62.9,59.6,30.32,ESE,112,4.0,5.0,89,0.00,,,0.00,Weather View 32 v70,2013-08-17 07:36:00,
2013-08-17 02:41:00,62.9,59.6,30.32,ESE,112,2.0,6.0,89,0.00,,,0.00,Weather View 32 v70,2013-08-17 07:41:00,
2013-08-17 02:46:00,62.8,59.5,30.32,ESE,112,2.0,6.0,89,0.00,,,0.00,Weather View 32 v70,2013-08-17 07:46:00,
2013-08-17 02:51:00,62.7,59.4,30.32,ESE,112,4.0,6.0,89,0.00,,,0.00,Weather View 32 v70,2013-08-17 07:51:00,
2013-08-17 02:56:00,62.7,59.4,30.32,East,90,4.0,6.0,89,0.00,,,0.00,Weather View 32 v70,2013-08-17 07:56:00,
2013-08-17 03:01:00,62.6,59.3,30.32,East,90,4.0,6.0,89,0.00,,,0.00,Weather View 32 v70,2013-08-17 08:01:00,
2013-08-17 03:06:00,62.5,59.2,30.32,ESE,112,6.0,6.0,89,0.00,,,0.00,Weather View 32 v70,2013-08-17 08:06:00,
2013-08-17 03:11:00,62.5,59.2,30.32,ESE,112,6.0,6.0,89,0.00,,,0.00,Weather View 32 v70,2013-08-17 08:11:00,
2013-08-17 03:16:00,62.5,59.2,30.32,ESE,112,4.0,7.0,89,0.00,,,0.00,Weather View 32 v70,2013-08-17 08:16:00,
2013-08-17 03:21:00,62.5,59.2,30.32,East,90,2.0,7.0,89,0.00,,,0.00,Weather View 32 v70,2013-08-17 08:21:00,
2013-08-17 03:26:00,62.5,59.2,30.32,ESE,112,3.0,7.0,89,0.00,,,0.00,Weather View 32 v70,2013-08-17 08:26:00,
2013-08-17 03:31:00,62.6,59.3,30.32,East,90,5.0,7.0,89,0.00,,,0.00,Weather View 32 v70,2013-08-17 08:31:00,
2013-08-17 03:36:00,62.8,59.5,30.32,SE,135,5.0,7.0,89,0.00,,,0.00,Weather View 32 v70,2013-08-17 08:36:00,
2013-08-17 03:41:00,62.9,59.3,30.32,SE,135,4.0,7.0,88,0.00,,,0.00,Weather View 32 v70,2013-08-17 08:41:00,
2013-08-17 03:46:00,63.2,59.3,30.32,ESE,112,3.0,9.0,87,0.00,,,0.00,Weather View 32 v70,2013-08-17 08:46:00,
2013-08-17 03:52:00,63.3,59.4,30.32,ESE,112,6.0,9.0,87,0.00,,,0.00,Weather View 32 v70,2013-08-17 08:52:00,
2013-08-17 03:57:00,63.2,59.3,30.32,SE,135,2.0,9.0,87,0.00,,,0.00,Weather View 32 v70,2013-08-17 08:57:00,
2013-08-17 04:02:00,63.2,59.3,30.32,ESE,112,3.0,9.0,87,0.00,,,0.00,Weather View 32 v70,2013-08-17 09:02:00,
2013-08-17 04:07:00,63.1,59.2,30.32,ESE,112,4.0,9.0,87,0.00,,,0.00,Weather View 32 v70,2013-08-17 09:07:00,
2013-08-17 04:12:00,63.2,59.3,30.32,ESE,112,2.0,9.0,87,0.00,,,0.00,Weather View 32 v70,2013-08-17 09:12:00,
2013-08-17 04:17:00,63.3,59.0,30.32,ESE,112,4.0,9.0,86,0.00,,,0.00,Weather View 32 v70,2013-08-17 09:17:00,
2013-08-17 04:22:00,63.3,59.0,30.32,ESE,112,5.0,9.0,86,0.00,,,0.00,Weather View 32 v70,2013-08-17 09:22:00,
2013-08-17 04:27:00,63.4,59.1,30.32,SSE,157,2.0,9.0,86,0.00,,,0.00,Weather View 32 v70,2013-08-17 09:27:00,
2013-08-17 04:32:00,63.3,59.0,30.32,SE,135,1.0,9.0,86,0.00,,,0.00,Weather View 32 v70,2013-08-17 09:32:00,
2013-08-17 04:37:00,63.2,59.3,30.33,SE,135,2.0,9.0,87,0.00,,,0.00,Weather View 32 v70,2013-08-17 09:37:00,
2013-08-17 04:42:00,63.1,59.2,30.32,SE,135,4.0,9.0,87,0.00,,,0.00,Weather View 32 v70,2013-08-17 09:42:00,
2013-08-17 04:47:00,62.9,59.0,30.33,SE,135,2.0,7.0,87,0.00,,,0.00,Weather View 32 v70,2013-08-17 09:47:00,
2013-08-17 04:52:00,62.8,59.2,30.33,SE,135,2.0,7.0,88,0.00,,,0.00,Weather View 32 v70,2013-08-17 09:52:00,
2013-08-17 04:57:00,62.5,59.2,30.33,ESE,112,2.0,7.0,89,0.00,,,0.00,Weather View 32 v70,2013-08-17 09:57:00,
2013-08-17 05:02:00,62.3,59.3,30.32,ESE,112,4.0,7.0,90,0.00,,,0.00,Weather View 32 v70,2013-08-17 10:02:00,
2013-08-17 05:07:00,62.2,59.2,30.32,SE,135,4.0,7.0,90,0.00,,,0.00,Weather View 32 v70,2013-08-17 10:07:00,
2013-08-17 05:12:00,62.1,59.1,30.32,SE,135,3.0,7.0,90,0.00,,,0.00,Weather View 32 v70,2013-08-17 10:12:00,
2013-08-17 05:17:00,61.9,59.2,30.32,SE,135,1.0,7.0,91,0.00,,,0.00,Weather View 32 v70,2013-08-17 10:17:00,
2013-08-17 05:22:00,61.8,59.1,30.32,SE,135,2.0,7.0,91,0.00,,,0.00,Weather View 32 v70,2013-08-17 10:22:00,
2013-08-17 05:27:00,61.6,59.2,30.32,ESE,112,2.0,6.0,92,0.00,,,0.00,Weather View 32 v70,2013-08-17 10:27:00,
2013-08-17 05:32:00,61.4,59.0,30.32,ESE,112,2.0,6.0,92,0.00,,,0.00,Weather View 32 v70,2013-08-17 10:32:00,
2013-08-17 05:37:00,61.3,59.3,30.32,SE,135,2.0,6.0,93,0.00,,,0.00,Weather View 32 v70,2013-08-17 10:37:00,
2013-08-17 05:42:00,61.4,59.4,30.32,SE,135,3.0,6.0,93,0.00,,,0.00,Weather View 32 v70,2013-08-17 10:42:00,
2013-08-17 05:47:00,61.3,59.3,30.32,ESE,112,2.0,6.0,93,0.00,,,0.00,Weather View 32 v70,2013-08-17 10:47:00,
2013-08-17 05:52:00,61.3,59.6,30.32,SE,135,3.0,6.0,94,0.00,,,0.00,Weather View 32 v70,2013-08-17 10:52:00,
2013-08-17 05:57:00,61.2,59.5,30.32,ESE,112,2.0,6.0,94,0.00,,,0.00,Weather View 32 v70,2013-08-17 10:57:00,
2013-08-17 06:02:00,61.1,59.4,30.32,SE,135,2.0,6.0,94,0.00,,,0.00,Weather View 32 v70,2013-08-17 11:02:00,
2013-08-17 06:07:00,60.9,59.2,30.32,SE,135,2.0,6.0,94,0.00,,,0.00,Weather View 32 v70,2013-08-17 11:07:00,
2013-08-17 06:12:00,60.8,59.4,30.32,SE,135,3.0,6.0,95,0.00,,,0.00,Weather View 32 v70,2013-08-17 11:12:00,
2013-08-17 06:17:00,60.8,59.4,30.32,SE,135,3.0,6.0,95,0.00,,,0.00,Weather View 32 v70,2013-08-17 11:17:00,
2013-08-17 06:22:00,60.7,59.3,30.32,ESE,112,5.0,6.0,95,0.00,,,0.00,Weather View 32 v70,2013-08-17 11:22:00,
2013-08-17 06:27:00,60.7,59.3,30.32,East,90,5.0,6.0,95,0.00,,,0.00,Weather View 32 v70,2013-08-17 11:27:00,
2013-08-17 06:32:00,60.8,59.4,30.32,East,90,3.0,6.0,95,0.00,,,0.00,Weather View 32 v70,2013-08-17 11:32:00,
2013-08-17 06:37:00,60.9,59.5,30.32,ESE,112,5.0,7.0,95,0.00,,,0.00,Weather View 32 v70,2013-08-17 11:37:00,
2013-08-17 06:42:00,61.0,59.3,30.32,SE,135,6.0,8.0,94,0.00,,,0.00,Weather View 32 v70,2013-08-17 11:42:00,
2013-08-17 06:47:00,61.1,59.4,30.32,ESE,112,4.0,8.0,94,0.00,,,0.00,Weather View 32 v70,2013-08-17 11:47:00,
2013-08-17 06:52:00,61.2,59.2,30.32,SE,135,4.0,8.0,93,0.00,,,0.00,Weather View 32 v70,2013-08-17 11:52:00,
2013-08-17 06:57:00,61.3,59.3,30.33,ESE,112,4.0,8.0,93,0.00,,,0.00,Weather View 32 v70,2013-08-17 11:57:00,
2013-08-17 07:02:00,61.4,59.4,30.33,ESE,112,4.0,8.0,93,0.00,,,0.00,Weather View 32 v70,2013-08-17 12:02:00,
2013-08-17 07:06:00,61.3,59.3,30.33,SE,135,4.0,8.0,93,0.00,,,0.00,Weather View 32 v70,2013-08-17 12:06:00,
2013-08-17 07:11:00,61.4,59.4,30.33,ESE,112,4.0,8.0,93,0.00,,,0.00,Weather View 32 v70,2013-08-17 12:11:00,
2013-08-17 07:16:00,61.5,59.1,30.33,SE,135,4.0,8.0,92,0.00,,,0.00,Weather View 32 v70,2013-08-17 12:16:00,
2013-08-17 07:21:00,61.5,59.1,30.33,ESE,112,5.0,8.0,92,0.00,,,0.00,Weather View 32 v70,2013-08-17 12:21:00,
2013-08-17 07:26:00,61.6,59.2,30.33,East,90,4.0,8.0,92,0.00,,,0.00,Weather View 32 v70,2013-08-17 12:26:00,
2013-08-17 07:31:00,61.7,59.0,30.33,ESE,112,3.0,8.0,91,0.00,,,0.00,Weather View 32 v70,2013-08-17 12:31:00,
2013-08-17 07:36:00,61.9,59.2,30.33,East,90,4.0,8.0,91,0.00,,,0.00,Weather View 32 v70,2013-08-17 12:36:00,
2013-08-17 07:41:00,62.1,59.1,30.33,ESE,112,3.0,7.0,90,0.00,,,0.00,Weather View 32 v70,2013-08-17 12:41:00,
2013-08-17 07:46:00,62.4,59.1,30.33,ESE,112,4.0,7.0,89,0.00,,,0.00,Weather View 32 v70,2013-08-17 12:46:00,
2013-08-17 07:51:00,62.6,59.0,30.33,East,90,5.0,7.0,88,0.00,,,0.00,Weather View 32 v70,2013-08-17 12:51:00,
2013-08-17 07:56:00,62.9,59.3,30.33,ESE,112,2.0,7.0,88,0.00,,,0.00,Weather View 32 v70,2013-08-17 12:56:00,
2013-08-17 08:01:00,63.1,59.2,30.33,ESE,112,2.0,7.0,87,0.00,,,0.00,Weather View 32 v70,2013-08-17 13:01:00,
2013-08-17 08:06:00,63.5,58.9,30.33,East,90,6.0,8.0,85,0.00,,,0.00,Weather View 32 v70,2013-08-17 13:06:00,
2013-08-17 08:11:00,63.7,58.8,30.33,SE,135,3.0,10.0,84,0.00,,,0.00,Weather View 32 v70,2013-08-17 13:11:00,
2013-08-17 08:16:00,63.9,59.0,30.33,SE,135,4.0,10.0,84,0.00,,,0.00,Weather View 32 v70,2013-08-17 13:16:00,
2013-08-17 08:21:00,64.1,59.2,30.33,SE,135,3.0,10.0,84,0.00,,,0.00,Weather View 32 v70,2013-08-17 13:21:00,
2013-08-17 08:26:00,64.2,58.9,30.33,ESE,112,2.0,10.0,83,0.00,,,0.00,Weather View 32 v70,2013-08-17 13:26:00,
2013-08-17 08:31:00,64.1,59.2,30.33,ESE,112,2.0,10.0,84,0.00,,,0.00,Weather View 32 v70,2013-08-17 13:31:00,
2013-08-17 08:36:00,64.1,59.2,30.33,SE,135,2.0,10.0,84,0.00,,,0.00,Weather View 32 v70,2013-08-17 13:36:00,
2013-08-17 08:41:00,64.1,59.2,30.34,SE,135,5.0,10.0,84,0.00,,,0.00,Weather View 32 v70,2013-08-17 13:41:00,
2013-08-17 08:46:00,64.3,59.3,30.34,ESE,112,4.0,10.0,84,0.00,,,0.00,Weather View 32 v70,2013-08-17 13:46:00,
2013-08-17 08:51:00,64.5,59.2,30.34,ESE,112,5.0,10.0,83,0.00,,,0.00,Weather View 32 v70,2013-08-17 13:51:00,
2013-08-17 08:56:00,64.7,59.4,30.34,East,90,6.0,10.0,83,0.00,,,0.00,Weather View 32 v70,2013-08-17 13:56:00,
2013-08-17 09:01:00,64.5,59.2,30.34,SE,135,6.0,10.0,83,0.00,,,0.00,Weather View 32 v70,2013-08-17 14:01:00,
2013-08-17 09:06:00,64.4,59.1,30.34,East,90,4.0,10.0,83,0.00,,,0.00,Weather View 32 v70,2013-08-17 14:06:00,
2013-08-17 09:11:00,64.9,59.6,30.34,East,90,4.0,9.0,83,0.00,,,0.00,Weather View 32 v70,2013-08-17 14:11:00,
2013-08-17 09:16:00,65.3,59.3,30.34,ESE,112,6.0,10.0,81,0.00,,,0.00,Weather View 32 v70,2013-08-17 14:16:00,
2013-08-17 09:21:00,65.7,59.3,30.34,SE,135,6.0,10.0,80,0.00,,,0.00,Weather View 32 v70,2013-08-17 14:21:00,
2013-08-17 09:26:00,66.3,60.3,30.34,SSE,157,2.0,10.0,81,0.00,,,0.00,Weather View 32 v70,2013-08-17 14:26:00,
2013-08-17 09:31:00,66.4,60.0,30.34,SE,135,2.0,11.0,80,0.00,,,0.00,Weather View 32 v70,2013-08-17 14:31:00,
2013-08-17 09:36:00,66.6,59.9,30.34,SE,135,2.0,11.0,79,0.00,,,0.00,Weather View 32 v70,2013-08-17 14:36:00,
2013-08-17 09:41:00,66.7,59.6,30.35,SE,135,2.0,11.0,78,0.00,,,0.00,Weather View 32 v70,2013-08-17 14:41:00,
2013-08-17 09:46:00,67.1,60.3,30.35,East,90,6.0,11.0,79,0.00,,,0.00,Weather View 32 v70,2013-08-17 14:46:00,
2013-08-17 09:51:00,67.9,60.4,30.35,ESE,112,2.0,11.0,77,0.00,,,0.00,Weather View 32 v70,2013-08-17 14:51:00,
2013-08-17 09:56:00,68.1,60.6,30.35,East,90,4.0,11.0,77,0.00,,,0.00,Weather View 32 v70,2013-08-17 14:56:00,
2013-08-17 10:01:00,68.1,60.2,30.35,ESE,112,3.0,11.0,76,0.00,,,0.00,Weather View 32 v70,2013-08-17 15:01:00,
2013-08-17 10:06:00,69.1,60.4,30.34,ESE,112,8.0,11.0,74,0.00,,,0.00,Weather View 32 v70,2013-08-17 15:06:00,
2013-08-17 10:11:00,69.5,60.4,30.35,ESE,112,6.0,11.0,73,0.00,,,0.00,Weather View 32 v70,2013-08-17 15:11:00,
2013-08-17 10:16:00,70.4,60.9,30.35,SE,135,0.0,11.0,72,0.00,,,0.00,Weather View 32 v70,2013-08-17 15:16:00,
2013-08-17 10:21:00,70.3,60.8,30.35,SE,135,4.0,11.0,72,0.00,,,0.00,Weather View 32 v70,2013-08-17 15:21:00,
2013-08-17 10:26:00,70.7,61.2,30.35,ESE,112,2.0,11.0,72,0.00,,,0.00,Weather View 32 v70,2013-08-17 15:26:00,
2013-08-17 10:31:00,71.3,60.6,30.35,ESE,112,6.0,11.0,69,0.00,,,0.00,Weather View 32 v70,2013-08-17 15:31:00,
2013-08-17 10:36:00,71.0,59.9,30.35,East,90,8.0,12.0,68,0.00,,,0.00,Weather View 32 v70,2013-08-17 15:36:00,
2013-08-17 10:41:00,72.1,60.9,30.35,SE,135,4.0,12.0,68,0.00,,,0.00,Weather View 32 v70,2013-08-17 15:41:00,
2013-08-17 10:46:00,72.0,59.6,30.35,South,180,7.0,12.0,65,0.00,,,0.00,Weather View 32 v70,2013-08-17 15:46:00,
2013-08-17 10:51:00,72.7,59.8,30.35,SE,135,1.0,12.0,64,0.00,,,0.00,Weather View 32 v70,2013-08-17 15:51:00,
2013-08-17 10:56:00,72.5,58.2,30.35,ESE,112,11.0,16.0,61,0.00,,,0.00,Weather View 32 v70,2013-08-17 15:56:00,
2013-08-17 11:01:00,72.9,59.1,30.35,SE,135,6.0,16.0,62,0.00,,,0.00,Weather View 32 v70,2013-08-17 16:01:00,
2013-08-17 11:06:00,72.8,58.5,30.35,WNW,292,0.0,16.0,61,0.00,,,0.00,Weather View 32 v70,2013-08-17 16:06:00,
2013-08-17 11:11:00,73.0,57.8,30.35,SE,135,8.0,16.0,59,0.00,,,0.00,Weather View 32 v70,2013-08-17 16:11:00,
2013-08-17 11:16:00,72.9,58.2,30.35,ESE,112,10.0,16.0,60,0.00,,,0.00,Weather View 32 v70,2013-08-17 16:16:00,
2013-08-17 11:21:00,73.4,57.2,30.34,South,180,1.0,16.0,57,0.00,,,0.00,Weather View 32 v70,2013-08-17 16:21:00,
2013-08-17 11:26:00,73.3,57.6,30.34,East,90,7.0,16.0,58,0.00,,,0.00,Weather View 32 v70,2013-08-17 16:26:00,
2013-08-17 11:31:00,74.1,57.8,30.34,South,180,2.0,16.0,57,0.00,,,0.00,Weather View 32 v70,2013-08-17 16:31:00,
2013-08-17 11:36:00,74.3,56.5,30.34,East,90,4.0,16.0,54,0.00,,,0.00,Weather View 32 v70,2013-08-17 16:36:00,
2013-08-17 11:41:00,74.2,57.4,30.34,SSE,157,0.0,16.0,56,0.00,,,0.00,Weather View 32 v70,2013-08-17 16:41:00,
2013-08-17 11:46:00,74.7,57.4,30.34,SE,135,6.0,16.0,55,0.00,,,0.00,Weather View 32 v70,2013-08-17 16:46:00,
2013-08-17 11:51:00,74.7,57.9,30.34,SE,135,1.0,16.0,56,0.00,,,0.00,Weather View 32 v70,2013-08-17 16:51:00,
2013-08-17 11:56:00,74.7,57.4,30.34,East,90,7.0,16.0,55,0.00,,,0.00,Weather View 32 v70,2013-08-17 16:56:00,
2013-08-17 12:01:00,74.8,57.5,30.34,SE,135,2.0,16.0,55,0.00,,,0.00,Weather View 32 v70,2013-08-17 17:01:00,
2013-08-17 12:06:00,74.7,56.4,30.34,SE,135,7.0,15.0,53,0.00,,,0.00,Weather View 32 v70,2013-08-17 17:06:00,
2013-08-17 12:11:00,74.7,56.9,30.34,SE,135,4.0,16.0,54,0.00,,,0.00,Weather View 32 v70,2013-08-17 17:11:00,
2013-08-17 12:16:00,75.1,57.8,30.34,SE,135,2.0,16.0,55,0.00,,,0.00,Weather View 32 v70,2013-08-17 17:16:00,
2013-08-17 12:21:00,75.5,57.1,30.34,ESE,112,6.0,16.0,53,0.00,,,0.00,Weather View 32 v70,2013-08-17 17:21:00,
2013-08-17 12:26:00,75.0,56.7,30.34,SSE,157,9.0,16.0,53,0.00,,,0.00,Weather View 32 v70,2013-08-17 17:26:00,
2013-08-17 12:31:00,75.2,56.3,30.34,ESE,112,6.0,16.0,52,0.00,,,0.00,Weather View 32 v70,2013-08-17 17:31:00,
2013-08-17 12:36:00,75.7,55.7,30.34,SE,135,2.0,16.0,50,0.00,,,0.00,Weather View 32 v70,2013-08-17 17:36:00,
2013-08-17 12:41:00,75.9,56.4,30.34,South,180,1.0,16.0,51,0.00,,,0.00,Weather View 32 v70,2013-08-17 17:41:00,
2013-08-17 12:46:00,76.2,55.6,30.34,SE,135,1.0,16.0,49,0.00,,,0.00,Weather View 32 v70,2013-08-17 17:46:00,
2013-08-17 12:51:00,76.3,56.8,30.34,East,90,9.0,16.0,51,0.00,,,0.00,Weather View 32 v70,2013-08-17 17:51:00,
2013-08-17 12:56:00,76.1,56.0,30.34,ESE,112,5.0,16.0,50,0.00,,,0.00,Weather View 32 v70,2013-08-17 17:56:00,
2013-08-17 13:01:00,75.6,55.6,30.34,SSE,157,2.0,16.0,50,0.00,,,0.00,Weather View 32 v70,2013-08-17 18:01:00,
2013-08-17 13:06:00,76.1,56.6,30.33,NW,315,1.0,16.0,51,0.00,,,0.00,Weather View 32 v70,2013-08-17 18:06:00,
2013-08-17 13:11:00,75.4,56.0,30.33,SE,135,4.0,16.0,51,0.00,,,0.00,Weather View 32 v70,2013-08-17 18:11:00,
2013-08-17 13:16:00,75.9,57.0,30.33,ESE,112,11.0,16.0,52,0.00,,,0.00,Weather View 32 v70,2013-08-17 18:16:00,
2013-08-17 13:21:00,75.9,56.4,30.33,East,90,2.0,16.0,51,0.00,,,0.00,Weather View 32 v70,2013-08-17 18:21:00,
2013-08-17 13:26:00,76.5,58.0,30.33,South,180,5.0,16.0,53,0.00,,,0.00,Weather View 32 v70,2013-08-17 18:26:00,
2013-08-17 13:31:00,76.8,57.2,30.33,SW,225,1.0,15.0,51,0.00,,,0.00,Weather View 32 v70,2013-08-17 18:31:00,
2013-08-17 13:36:00,76.7,56.0,30.33,SE,135,7.0,15.0,49,0.00,,,0.00,Weather View 32 v70,2013-08-17 18:36:00,
2013-08-17 13:41:00,76.6,56.5,30.33,SE,135,2.0,15.0,50,0.00,,,0.00,Weather View 32 v70,2013-08-17 18:41:00,
2013-08-17 13:46:00,76.8,57.8,30.33,South,180,2.0,15.0,52,0.00,,,0.00,Weather View 32 v70,2013-08-17 18:46:00,
2013-08-17 13:51:00,77.2,57.6,30.33,East,90,3.0,15.0,51,0.00,,,0.00,Weather View 32 v70,2013-08-17 18:51:00,
2013-08-17 13:56:00,77.3,58.8,30.33,South,180,1.0,15.0,53,0.00,,,0.00,Weather View 32 v70,2013-08-17 18:56:00,
2013-08-17 14:01:00,77.9,59.9,30.33,SE,135,4.0,15.0,54,0.00,,,0.00,Weather View 32 v70,2013-08-17 19:01:00,
2013-08-17 14:06:00,77.3,58.8,30.33,SE,135,6.0,15.0,53,0.00,,,0.00,Weather View 32 v70,2013-08-17 19:06:00,
2013-08-17 14:11:00,76.7,58.2,30.33,ESE,112,7.0,15.0,53,0.00,,,0.00,Weather View 32 v70,2013-08-17 19:11:00,
2013-08-17 14:16:00,76.7,57.2,30.32,SE,135,2.0,16.0,51,0.00,,,0.00,Weather View 32 v70,2013-08-17 19:16:00,
2013-08-17 14:21:00,76.9,58.4,30.32,SE,135,5.0,16.0,53,0.00,,,0.00,Weather View 32 v70,2013-08-17 19:21:00,
2013-08-17 14:26:00,77.3,59.3,30.32,South,180,0.0,16.0,54,0.00,,,0.00,Weather View 32 v70,2013-08-17 19:26:00,
2013-08-17 14:31:00,77.4,58.9,30.32,East,90,9.0,16.0,53,0.00,,,0.00,Weather View 32 v70,2013-08-17 19:31:00,
2013-08-17 14:36:00,77.4,59.4,30.32,East,90,2.0,16.0,54,0.00,,,0.00,Weather View 32 v70,2013-08-17 19:36:00,
2013-08-17 14:41:00,77.7,58.6,30.32,SSW,202,4.0,16.0,52,0.00,,,0.00,Weather View 32 v70,2013-08-17 19:41:00,
2013-08-17 14:46:00,77.8,58.7,30.32,ESE,112,4.0,16.0,52,0.00,,,0.00,Weather View 32 v70,2013-08-17 19:46:00,
2013-08-17 14:51:00,77.9,58.8,30.32,East,90,2.0,16.0,52,0.00,,,0.00,Weather View 32 v70,2013-08-17 19:51:00,
2013-08-17 14:56:00,77.6,58.5,30.32,SE,135,6.0,16.0,52,0.00,,,0.00,Weather View 32 v70,2013-08-17 19:56:00,
2013-08-17 15:01:00,78.2,59.1,30.32,South,180,2.0,16.0,52,0.00,,,0.00,Weather View 32 v70,2013-08-17 20:01:00,
2013-08-17 15:06:00,78.0,59.4,30.32,SSE,157,2.0,16.0,53,0.00,,,0.00,Weather View 32 v70,2013-08-17 20:06:00,
2013-08-17 15:11:00,77.9,59.3,30.32,South,180,1.0,16.0,53,0.00,,,0.00,Weather View 32 v70,2013-08-17 20:11:00,
2013-08-17 15:16:00,78.6,59.4,30.31,ESE,112,6.0,14.0,52,0.00,,,0.00,Weather View 32 v70,2013-08-17 20:16:00,
2013-08-17 15:21:00,78.2,58.0,30.31,SSE,157,1.0,14.0,50,0.00,,,0.00,Weather View 32 v70,2013-08-17 20:21:00,
2013-08-17 15:26:00,77.9,57.7,30.31,East,90,4.0,16.0,50,0.00,,,0.00,Weather View 32 v70,2013-08-17 20:26:00,
2013-08-17 15:31:00,78.1,59.0,30.31,SE,135,4.0,16.0,52,0.00,,,0.00,Weather View 32 v70,2013-08-17 20:31:00,
2013-08-17 15:36:00,78.3,58.1,30.31,South,180,2.0,16.0,50,0.00,,,0.00,Weather View 32 v70,2013-08-17 20:36:00,
2013-08-17 15:41:00,78.2,58.0,30.31,SE,135,4.0,16.0,50,0.00,,,0.00,Weather View 32 v70,2013-08-17 20:41:00,
2013-08-17 15:46:00,78.7,59.0,30.31,SW,225,2.0,16.0,51,0.00,,,0.00,Weather View 32 v70,2013-08-17 20:46:00,
2013-08-17 15:51:00,78.5,59.3,30.31,NE,45,2.0,16.0,52,0.00,,,0.00,Weather View 32 v70,2013-08-17 20:51:00,
2013-08-17 15:56:00,78.2,59.1,30.31,SSE,157,2.0,16.0,52,0.00,,,0.00,Weather View 32 v70,2013-08-17 20:56:00,
2013-08-17 16:01:00,78.4,59.3,30.31,East,90,2.0,16.0,52,0.00,,,0.00,Weather View 32 v70,2013-08-17 21:01:00,
2013-08-17 16:06:00,78.9,58.6,30.31,East,90,6.0,16.0,50,0.00,,,0.00,Weather View 32 v70,2013-08-17 21:06:00,
2013-08-17 16:11:00,79.1,60.4,30.31,SE,135,2.0,16.0,53,0.00,,,0.00,Weather View 32 v70,2013-08-17 21:11:00,
2013-08-17 16:16:00,79.3,58.4,30.31,SE,135,1.0,16.0,49,0.00,,,0.00,Weather View 32 v70,2013-08-17 21:16:00,
2013-08-17 16:21:00,78.9,59.7,30.31,ESE,112,5.0,16.0,52,0.00,,,0.00,Weather View 32 v70,2013-08-17 21:21:00,
2013-08-17 16:26:00,78.9,58.6,30.30,East,90,1.0,14.0,50,0.00,,,0.00,Weather View 32 v70,2013-08-17 21:26:00,
2013-08-17 16:32:00,78.8,59.6,30.31,South,180,1.0,14.0,52,0.00,,,0.00,Weather View 32 v70,2013-08-17 21:32:00,
2013-08-17 16:37:00,78.6,59.4,30.31,East,90,10.0,14.0,52,0.00,,,0.00,Weather View 32 v70,2013-08-17 21:37:00,
2013-08-17 16:42:00,78.3,59.2,30.31,East,90,2.0,14.0,52,0.00,,,0.00,Weather View 32 v70,2013-08-17 21:42:00,
2013-08-17 16:47:00,79.1,58.8,30.30,SSW,202,4.0,14.0,50,0.00,,,0.00,Weather View 32 v70,2013-08-17 21:47:00,
2013-08-17 16:52:00,78.9,59.2,30.31,ESE,112,7.0,14.0,51,0.00,,,0.00,Weather View 32 v70,2013-08-17 21:52:00,
2013-08-17 16:57:00,78.8,60.2,30.31,SW,225,5.0,14.0,53,0.00,,,0.00,Weather View 32 v70,2013-08-17 21:57:00,
2013-08-17 17:02:00,78.9,59.2,30.31,ESE,112,1.0,14.0,51,0.00,,,0.00,Weather View 32 v70,2013-08-17 22:02:00,
2013-08-17 17:07:00,78.5,58.8,30.31,ESE,112,5.0,14.0,51,0.00,,,0.00,Weather View 32 v70,2013-08-17 22:07:00,
2013-08-17 17:12:00,77.4,58.3,30.31,SE,135,0.0,14.0,52,0.00,,,0.00,Weather View 32 v70,2013-08-17 22:12:00,
2013-08-17 17:17:00,77.7,58.6,30.31,ESE,112,7.0,14.0,52,0.00,,,0.00,Weather View 32 v70,2013-08-17 22:17:00,
2013-08-17 17:22:00,78.3,59.2,30.30,SE,135,1.0,14.0,52,0.00,,,0.00,Weather View 32 v70,2013-08-17 22:22:00,
2013-08-17 17:27:00,77.8,58.7,30.30,SE,135,2.0,14.0,52,0.00,,,0.00,Weather View 32 v70,2013-08-17 22:27:00,
2013-08-17 17:32:00,77.5,59.0,30.31,SE,135,5.0,14.0,53,0.00,,,0.00,Weather View 32 v70,2013-08-17 22:32:00,
2013-08-17 17:37:00,77.6,59.6,30.30,SE,135,1.0,14.0,54,0.00,,,0.00,Weather View 32 v70,2013-08-17 22:37:00,
2013-08-17 17:42:00,77.8,58.2,30.30,SE,135,6.0,14.0,51,0.00,,,0.00,Weather View 32 v70,2013-08-17 22:42:00,
2013-08-17 17:47:00,77.8,58.7,30.30,SE,135,6.0,14.0,52,0.00,,,0.00,Weather View 32 v70,2013-08-17 22:47:00,
2013-08-17 17:52:00,77.8,59.2,30.30,SE,135,4.0,14.0,53,0.00,,,0.00,Weather View 32 v70,2013-08-17 22:52:00,
2013-08-17 17:57:00,77.7,58.6,30.30,SE,135,6.0,13.0,52,0.00,,,0.00,Weather View 32 v70,2013-08-17 22:57:00,
2013-08-17 18:02:00,76.9,57.3,30.30,SE,135,2.0,13.0,51,0.00,,,0.00,Weather View 32 v70,2013-08-17 23:02:00,
2013-08-17 18:07:00,76.3,57.9,30.30,ESE,112,3.0,14.0,53,0.00,,,0.00,Weather View 32 v70,2013-08-17 23:07:00,
2013-08-17 18:12:00,76.3,58.4,30.30,SE,135,2.0,14.0,54,0.00,,,0.00,Weather View 32 v70,2013-08-17 23:12:00,
2013-08-17 18:17:00,76.5,58.0,30.29,SE,135,7.0,14.0,53,0.00,,,0.00,Weather View 32 v70,2013-08-17 23:17:00,
2013-08-17 18:22:00,76.4,57.4,30.29,ESE,112,9.0,14.0,52,0.00,,,0.00,Weather View 32 v70,2013-08-17 23:22:00,
2013-08-17 18:27:00,76.2,57.8,30.29,East,90,7.0,14.0,53,0.00,,,0.00,Weather View 32 v70,2013-08-17 23:27:00,
2013-08-17 18:32:00,76.1,57.1,30.29,SE,135,2.0,14.0,52,0.00,,,0.00,Weather View 32 v70,2013-08-17 23:32:00,
2013-08-17 18:37:00,76.2,57.2,30.29,East,90,7.0,14.0,52,0.00,,,0.00,Weather View 32 v70,2013-08-17 23:37:00,
2013-08-17 18:42:00,76.0,57.6,30.29,SE,135,8.0,14.0,53,0.00,,,0.00,Weather View 32 v70,2013-08-17 23:42:00,
2013-08-17 18:47:00,76.1,57.1,30.29,SE,135,3.0,14.0,52,0.00,,,0.00,Weather View 32 v70,2013-08-17 23:47:00,
2013-08-17 18:52:00,75.9,57.5,30.29,SE,135,7.0,14.0,53,0.00,,,0.00,Weather View 32 v70,2013-08-17 23:52:00,
2013-08-17 18:57:00,75.8,57.4,30.29,SE,135,5.0,14.0,53,0.00,,,0.00,Weather View 32 v70,2013-08-17 23:57:00,
2013-08-17 19:02:00,75.9,58.0,30.29,SE,135,2.0,14.0,54,0.00,,,0.00,Weather View 32 v70,2013-08-18 00:02:00,
2013-08-17 19:07:00,75.6,56.7,30.29,ESE,112,6.0,14.0,52,0.00,,,0.00,Weather View 32 v70,2013-08-18 00:07:00,
2013-08-17 19:12:00,75.5,57.1,30.29,SE,135,8.0,14.0,53,0.00,,,0.00,Weather View 32 v70,2013-08-18 00:12:00,
2013-08-17 19:17:00,75.5,57.6,30.28,SE,135,4.0,14.0,54,0.00,,,0.00,Weather View 32 v70,2013-08-18 00:17:00,
2013-08-17 19:22:00,75.3,58.0,30.28,SE,135,4.0,13.0,55,0.00,,,0.00,Weather View 32 v70,2013-08-18 00:22:00,
2013-08-17 19:27:00,75.1,57.8,30.28,ESE,112,6.0,13.0,55,0.00,,,0.00,Weather View 32 v70,2013-08-18 00:27:00,
2013-08-17 19:32:00,74.8,58.0,30.28,SE,135,6.0,13.0,56,0.00,,,0.00,Weather View 32 v70,2013-08-18 00:32:00,
2013-08-17 19:37:00,74.7,58.4,30.28,SE,135,6.0,13.0,57,0.00,,,0.00,Weather View 32 v70,2013-08-18 00:37:00,
2013-08-17 19:42:00,74.5,58.2,30.28,ESE,112,4.0,13.0,57,0.00,,,0.00,Weather View 32 v70,2013-08-18 00:42:00,
2013-08-17 19:47:00,74.3,58.0,30.28,SE,135,4.0,13.0,57,0.00,,,0.00,Weather View 32 v70,2013-08-18 00:47:00,
2013-08-17 19:52:00,73.9,58.1,30.28,ESE,112,3.0,13.0,58,0.00,,,0.00,Weather View 32 v70,2013-08-18 00:52:00,
2013-08-17 19:57:00,73.7,58.4,30.28,ESE,112,3.0,13.0,59,0.00,,,0.00,Weather View 32 v70,2013-08-18 00:57:00,
2013-08-17 20:02:00,73.4,58.6,30.28,East,90,6.0,13.0,60,0.00,,,0.00,Weather View 32 v70,2013-08-18 01:02:00,
2013-08-17 20:07:00,73.2,58.4,30.28,ESE,112,4.0,13.0,60,0.00,,,0.00,Weather View 32 v70,2013-08-18 01:07:00,
2013-08-17 20:12:00,72.9,58.6,30.28,ESE,112,7.0,12.0,61,0.00,,,0.00,Weather View 32 v70,2013-08-18 01:12:00,
2013-08-17 20:17:00,72.7,58.9,30.28,SE,135,3.0,12.0,62,0.00,,,0.00,Weather View 32 v70,2013-08-18 01:17:00,
2013-08-17 20:22:00,72.4,58.6,30.28,ESE,112,6.0,12.0,62,0.00,,,0.00,Weather View 32 v70,2013-08-18 01:22:00,
2013-08-17 20:27:00,72.2,58.9,30.28,SE,135,4.0,12.0,63,0.00,,,0.00,Weather View 32 v70,2013-08-18 01:27:00,
2013-08-17 20:32:00,71.9,58.6,30.28,ESE,112,4.0,12.0,63,0.00,,,0.00,Weather View 32 v70,2013-08-18 01:32:00,
2013-08-17 20:37:00,71.7,58.8,30.28,ESE,112,2.0,12.0,64,0.00,,,0.00,Weather View 32 v70,2013-08-18 01:37:00,
2013-08-17 20:42:00,71.4,59.0,30.28,SE,135,2.0,12.0,65,0.00,,,0.00,Weather View 32 v70,2013-08-18 01:42:00,
2013-08-17 20:47:00,71.2,58.8,30.28,SE,135,4.0,9.0,65,0.00,,,0.00,Weather View 32 v70,2013-08-18 01:47:00,
2013-08-17 20:52:00,71.0,59.0,30.28,ESE,112,4.0,9.0,66,0.00,,,0.00,Weather View 32 v70,2013-08-18 01:52:00,
2013-08-17 20:57:00,70.9,58.9,30.28,SE,135,6.0,9.0,66,0.00,,,0.00,Weather View 32 v70,2013-08-18 01:57:00,
2013-08-17 21:02:00,70.7,58.7,30.28,SE,135,4.0,9.0,66,0.00,,,0.00,Weather View 32 v70,2013-08-18 02:02:00,
2013-08-17 21:07:00,70.4,58.5,30.28,ESE,112,4.0,9.0,66,0.00,,,0.00,Weather View 32 v70,2013-08-18 02:07:00,
2013-08-17 21:12:00,70.2,58.7,30.28,East,90,4.0,9.0,67,0.00,,,0.00,Weather View 32 v70,2013-08-18 02:12:00,
2013-08-17 21:17:00,69.9,58.4,30.28,SE,135,5.0,9.0,67,0.00,,,0.00,Weather View 32 v70,2013-08-18 02:17:00,
2013-08-17 21:22:00,69.9,58.8,30.28,ESE,112,4.0,9.0,68,0.00,,,0.00,Weather View 32 v70,2013-08-18 02:22:00,
2013-08-17 21:27:00,69.8,58.7,30.28,SE,135,4.0,9.0,68,0.00,,,0.00,Weather View 32 v70,2013-08-18 02:27:00,
2013-08-17 21:32:00,69.6,58.9,30.28,ESE,112,4.0,9.0,69,0.00,,,0.00,Weather View 32 v70,2013-08-18 02:32:00,
2013-08-17 21:37:00,69.5,58.8,30.28,ESE,112,4.0,9.0,69,0.00,,,0.00,Weather View 32 v70,2013-08-18 02:37:00,
2013-08-17 21:42:00,69.4,58.8,30.28,SE,135,3.0,9.0,69,0.00,,,0.00,Weather View 32 v70,2013-08-18 02:42:00,
2013-08-17 21:47:00,69.2,59.0,30.28,SE,135,2.0,9.0,70,0.00,,,0.00,Weather View 32 v70,2013-08-18 02:47:00,
2013-08-17 21:52:00,69.0,58.8,30.28,ESE,112,3.0,9.0,70,0.00,,,0.00,Weather View 32 v70,2013-08-18 02:52:00,
2013-08-17 21:57:00,68.9,59.1,30.28,ESE,112,3.0,8.0,71,0.00,,,0.00,Weather View 32 v70,2013-08-18 02:57:00,
2013-08-17 22:02:00,68.6,58.8,30.28,SE,135,4.0,8.0,71,0.00,,,0.00,Weather View 32 v70,2013-08-18 03:02:00,
2013-08-17 22:07:00,68.5,59.1,30.28,SE,135,2.0,8.0,72,0.00,,,0.00,Weather View 32 v70,2013-08-18 03:07:00,
2013-08-17 22:12:00,68.3,58.9,30.28,SE,135,4.0,8.0,72,0.00,,,0.00,Weather View 32 v70,2013-08-18 03:12:00,
2013-08-17 22:17:00,68.2,58.8,30.28,SE,135,5.0,8.0,72,0.00,,,0.00,Weather View 32 v70,2013-08-18 03:17:00,
2013-08-17 22:22:00,68.1,58.7,30.28,ESE,112,4.0,8.0,72,0.00,,,0.00,Weather View 32 v70,2013-08-18 03:22:00,
2013-08-17 22:27:00,67.9,58.9,30.28,ESE,112,3.0,8.0,73,0.00,,,0.00,Weather View 32 v70,2013-08-18 03:27:00,
2013-08-17 22:32:00,67.9,58.9,30.28,ESE,112,4.0,8.0,73,0.00,,,0.00,Weather View 32 v70,2013-08-18 03:32:00,
2013-08-17 22:37:00,67.7,59.1,30.28,SE,135,2.0,8.0,74,0.00,,,0.00,Weather View 32 v70,2013-08-18 03:37:00,
2013-08-17 22:42:00,67.5,59.3,30.28,SE,135,2.0,7.0,75,0.00,,,0.00,Weather View 32 v70,2013-08-18 03:42:00,
2013-08-17 22:47:00,67.3,59.1,30.28,SE,135,2.0,7.0,75,0.00,,,0.00,Weather View 32 v70,2013-08-18 03:47:00,
2013-08-17 22:52:00,67.2,59.0,30.28,ESE,112,3.0,7.0,75,0.00,,,0.00,Weather View 32 v70,2013-08-18 03:52:00,
2013-08-17 22:57:00,66.9,59.1,30.28,SE,135,2.0,7.0,76,0.00,,,0.00,Weather View 32 v70,2013-08-18 03:57:00,
2013-08-17 23:01:00,66.8,59.3,30.28,ESE,112,1.0,7.0,77,0.00,,,0.00,Weather View 32 v70,2013-08-18 04:01:00,
2013-08-17 23:06:00,66.5,59.0,30.28,ESE,112,2.0,7.0,77,0.00,,,0.00,Weather View 32 v70,2013-08-18 04:06:00,
2013-08-17 23:11:00,66.3,59.2,30.28,ESE,112,3.0,7.0,78,0.00,,,0.00,Weather View 32 v70,2013-08-18 04:11:00,
2013-08-17 23:16:00,65.9,58.8,30.28,ESE,112,4.0,7.0,78,0.00,,,0.00,Weather View 32 v70,2013-08-18 04:16:00,
2013-08-17 23:21:00,65.8,59.1,30.28,ESE,112,2.0,7.0,79,0.00,,,0.00,Weather View 32 v70,2013-08-18 04:21:00,
2013-08-17 23:26:00,65.7,59.0,30.28,East,90,3.0,7.0,79,0.00,,,0.00,Weather View 32 v70,2013-08-18 04:26:00,
2013-08-17 23:31:00,65.6,59.2,30.28,ESE,112,3.0,6.0,80,0.00,,,0.00,Weather View 32 v70,2013-08-18 04:31:00,
2013-08-17 23:36:00,65.3,59.0,30.28,SE,135,4.0,6.0,80,0.00,,,0.00,Weather View 32 v70,2013-08-18 04:36:00,
2013-08-17 23:41:00,65.2,59.2,30.28,ESE,112,2.0,6.0,81,0.00,,,0.00,Weather View 32 v70,2013-08-18 04:41:00,
2013-08-17 23:46:00,64.9,58.9,30.28,ESE,112,2.0,6.0,81,0.00,,,0.00,Weather View 32 v70,2013-08-18 04:46:00,
2013-08-17 23:51:00,64.8,58.8,30.28,ESE,112,3.0,6.0,81,0.00,,,0.00,Weather View 32 v70,2013-08-18 04:51:00,
2013-08-17 23:56:00,64.6,59.0,30.28,ESE,112,4.0,6.0,82,0.00,,,0.00,Weather View 32 v70,2013-08-18 04:56:00,